Location: Audinghen
(50.8518°N, 1.6129°E)
Time: 02:10:40
(UTC+00:00)

CZ-4C R/B - Pass Details

Date: 07 August 2020
Orbit: 465 x 635 km, 98.0° (Epoch: 25 September)

Event Time Altitude Azimuth Distance (km) Brightness Sun altitude
Exits shadow 01:04:33 34° 105° (ESE) 801 4.1 -21.3°
Maximum altitude 01:05:24 40° 69° (ENE) 708 4.1 -21.3°
Drops below altitude 10° 01:08:45 10° 359° (N) 1,664 6.8 -21.1°
Sets 01:10:55 0° 352° (N) 2,567 7.8 -21.0°
